Regional Weather Roundup
Issued by NWS

Home | Current Version | Previous Version | Graphics & Text | Print | Product List | Glossary On
Versions: 1 2 3 4 5 6 7 8 9 10 11 12 13 14 15 16 17 18 19 20 21 22 23 24 25 26 27 28 29 30 31 32 33 34 35 36 37 38 39 40 41 42 43 44 45 46 47 48 49 50
000
ASUS43 KMPX 201210
RWRMN
WEATHER ROUNDUP FOR MINNESOTA
NATIONAL WEATHER SERVICE TWIN CITIES/CHANHASSEN MN
700 AM CDT THU JUL 20 2017


NOTE: "FAIR" INDICATES FEW OR NO CLOUDS BELOW 12,000 FEET WITH NO
SIGNIFICANT WEATHER AND/OR OBSTRUCTIONS TO VISIBILITY. N/A MEANS
CURRENT SKY AND/OR WEATHER CONDITIONS ARE NOT AVAILABLE.

MNZ060>063-068>070-201300-
   Twin Cities Metro

CITY           SKY/WX    TMP DP  RH WIND       PRES   REMARKS
TWIN CITIES    CLOUDY    70  67  90 S3        30.00R FOG
6HR MIN TEMP:  68; 6HR MAX TEMP:  71;

ST PAUL        CLOUDY    68  68 100 S3        29.99R FOG
CRYSTAL        CLOUDY    67  65  93 CALM      29.98R
BLAINE         FOG       68  68 100 CALM      29.98S VSB 1/4
LAKEVILLE      FOG       66  66 100 CALM      30.00R VSB<1/4
EDEN PRAIRIE   CLOUDY    70  68  93 CALM      29.99R FOG
6HR MIN TEMP:  68; 6HR MAX TEMP:  71;

SOUTH ST PAUL  FOG       68  68  99 CALM      29.99R VSB 1/4
LAKE ELMO      FOG       66  66 100 CALM      30.00R VSB 1/4
$$
MNZ001>005-007-008-013>017-022>024-027-028-201300-
   Northwest Minnesota

CITY           SKY/WX    TMP DP  RH WIND       PRES   REMARKS
BEMIDJI        CLOUDY    62  62  98 NW5       30.00R
HALLOCK        CLEAR     55  54  94 N6        30.00R
ROSEAU         SUNNY     61  54  77 CALM      30.00R
WARROAD        SUNNY     59  55  88 NW5       30.00R
THIEF RVR FALL SUNNY     59  58  96 CALM      30.02R
CROOKSTON      CLEAR     57  57 100 N3        30.01R
FOSSTON        FOG       55  54  94 CALM      30.02R VSB 1
DETROIT LAKES  FOG       63  61  94 CALM      30.02R VSB 1/4
MOORHEAD       FOG       59  57  94 CALM      30.00R VSB 1/2
PARK RAPIDS    FOG       61  60  97 CALM      30.01R VSB 1/4
MAHNOMEN       FOG       58  57  99 CALM      30.00R VSB 1
$$
MNZ006-009>011-018-025>026-201300-
   North Central Minnesota

CITY           SKY/WX    TMP DP  RH WIND       PRES   REMARKS
BAUDETTE       SUNNY     60  60 100 W6        29.97R FOG
FLAG ISLAND    SUNNY     63  57  82 W8        29.97R
INTL FALLS     PTSUNNY   62  60  93 W5        29.96R FOG
6HR MIN TEMP:  52; 6HR MAX TEMP:  64;

WASKISH        CLOUDY    64  63  94 NW8       29.98R
BIG FORK       FOG       59  57  94 CALM      29.97S VSB 1
LONGVILLE      CLOUDY    63  63 100 CALM      29.98S FOG
GRAND RAPIDS   MOSUNNY   66  64  93 NW6       30.01R
CRANE LAKE     SUNNY     54  54 100 CALM      29.95S
ORR            SUNNY     59  57  94 CALM      29.94R
COOK           SUNNY     61  61 100 CALM      29.96R
WALKER         FAIR      61  61  99 CALM      30.00R FOG
$$
MNZ012-019>021-037-201300-
   Northeast Minnesota

CITY           SKY/WX    TMP DP  RH WIND       PRES   REMARKS
DULUTH         CLOUDY    64  63  96 NW8       29.96R
6HR MIN TEMP:  57; 6HR MAX TEMP:  64;

ELY            SUNNY     59  59 100 CALM      29.95R
HIBBING        CLOUDY    55  55 100 W5        29.97R
EVELETH        SUNNY     58  55  91 CALM      29.97S FOG
DULUTH HARBOR  CLOUDY    63  59  88 SW12      29.95R
TWO HARBORS    CLOUDY    66  63  88 NW7       29.93R
GRAND MARAIS     N/A     58  55  90 W3        29.89S
G MARAIS ARPRT SUNNY     61  55  82 W5        29.94R
$$
MNZ029>031-032-039>041-046>048-054>057-064-201300-
   West Central Minnesota

CITY           SKY/WX    TMP DP  RH WIND       PRES   REMARKS
FERGUS FALLS   FOG       64  64 100 CALM      30.01R VSB<1/4
WHEATON        CLOUDY    63  63 100 CALM      30.02R FOG
MORRIS         FOG       63  61  94 CALM      30.00S VSB 1/4
ALEXANDRIA     CLOUDY    63  62  97 W3        30.03R
ELBOW LAKE     FOG       62  62 100 CALM      30.01S VSB 1/4
WADENA         CLOUDY    59  59 100 CALM      30.01R VSB<1/4
GLENWOOD       CLOUDY    61  61 100 W3        30.03R FOG
APPLETON       FOG       63  61  94 CALM      29.99S VSB 1/4
BENSON         FOG       61  57  88 NE3       30.01F VSB 1/4
ORTONVILLE     FOG       63  61  94 CALM      29.99F VSB 1
MADISON        MOCLDY    66  66 100 CALM      30.00R FOG
WILLMAR        MOCLDY    66  66 100 CALM      30.01S FOG
$$
MNZ033>034-036-042>043-049>051-058-059-201300-
   Central Minnesota

CITY           SKY/WX    TMP DP  RH WIND       PRES   REMARKS
ST CLOUD       MOSUNNY   62  62 100 CALM      30.00R FOG
6HR MIN TEMP:  59; 6HR MAX TEMP:  65;

SAUK CENTRE    FAIR      59  58  99 CALM      30.02R FOG
PAYNESVILLE    FOG       62  62 100 CALM      30.01F VSB 1/2
AITKIN         SUNNY     61  59  94 W3        29.98R
PINE RIVER     FOG       54  54 100 CALM      30.03R VSB 1/2
BRAINERD       SUNNY     61  60  97 SW5       30.01R FOG
STAPLES        PTSUNNY   57  57 100 CALM      30.01R FOG
LONG PRAIRIE   FAIR      59  59 100 CALM      30.02R FOG
LITTLE FALLS   CLOUDY    59  55  88 CALM      30.01R FOG
LITCHFIELD     CLOUDY    66  66 100 CALM      30.00F
BUFFALO        CLOUDY    65  64  94 CALM      30.00S FOG
MAPLE LAKE       N/A     66  66  99 N3        30.00S FOG
HUTCHINSON     SUNNY     67  67 100 CALM      30.00S FOG
$$
MNZ037-044-045-052-053-201300-
   East Central Minnesota

CITY           SKY/WX    TMP DP  RH WIND       PRES   REMARKS
PRINCETON      CLOUDY    64  63  94 CALM      30.00R FOG
MORA           SUNNY     59  59 100 CALM      30.00S
CAMBRIDGE      CLOUDY    66  63  88 S3        29.98R
RUSH CITY      SUNNY     62  61  97 CALM      30.00R FOG
MOOSE LAKE     SUNNY     55  54  94 CALM      29.96S FOG
HINCKLEY       FAIR      61  61 100 CALM      29.99R
CLOQUET        SUNNY     63  57  82 W6        29.98R
MCGREGOR       SUNNY     61  59  94 CALM      29.99S
$$
MNZ071>073-080-081-089-090-097-098-201300-
   Southwest Minnesota

CITY           SKY/WX    TMP DP  RH WIND       PRES   REMARKS
MONTEVIDEO     CLOUDY    64  64 100 N3        29.99S FOG
GRANITE FALLS  CLOUDY    67  66  98 CALM      30.01R FOG
CANBY          CLOUDY    65  65  97 CALM      30.02R FOG
MARSHALL       CLOUDY    68  68 100 SW5       30.02R FOG
REDWOOD FALLS  CLOUDY    67  65  93 N7        29.98R FOG
OLIVIA         MOCLDY    63  61  94 CALM      29.99R FOG
PIPESTONE      MOCLDY    70  66  88 NE6       30.00S
WINDOM         PTCLDY    68  66  94 W5        30.01R FOG
WORTHINGTON    MOCLDY    68  67  96 NE7       30.01S
JACKSON        CLOUDY    68  66  94 CALM      30.00S FOG
TRACY          CLOUDY    68  69 100 NW5       30.02R FOG
SLAYTON        HVY RAIN  66  65  94 NW6       30.02R
$$
MNZ065>067-074>077-082>085-091>093-201300-
   South Central Minnesota

CITY           SKY/WX    TMP DP  RH WIND       PRES   REMARKS
MANKATO        CLOUDY    69  68  96 NE9       29.99R
NEW ULM        CLOUDY    68  66  94 N7        29.98R
ST JAMES       PTCLDY    66  66 100 CALM      30.00R FOG
FAIRMONT       PTCLDY    68  67  96 N8        30.00R FOG
GLENCOE        FOG       67  67 100 CALM      29.99R VSB<1/4
FARIBAULT      CLOUDY    70  68  94 NE3       30.00R FOG
OWATONNA       CLOUDY    70  68  94 CALM      30.00R
WASECA         MOSUNNY   68  64  88 CALM      30.01R FOG
ALBERT LEA     CLOUDY    70  70 100 NE5       29.98R FOG
$$
MNZ078>079-086>088-094>096-201300-
   Southeast Minnesota

CITY           SKY/WX    TMP DP  RH WIND       PRES   REMARKS
ROCHESTER      CLOUDY    69  68  96 SE6       30.01R
6HR MIN TEMP:  68; 6HR MAX TEMP:  72; 6HR PCP:  0.01;

RED WING       CLOUDY    70  68  94 CALM      29.98R FOG
STANTON        CLOUDY    70  69  95 CALM      29.99R FOG
DODGE CENTER   CLOUDY    70  66  88 SE5       30.00R
WINONA         PTSUNNY   70  70 100 CALM      29.99R
AUSTIN         CLOUDY    72  68  88 E10       29.99R
PRESTON        CLOUDY    67  65  93 SE5       30.00S
$$
ABBREVIATIONS USED IN REMARKS
   TC - TEMPERATURES IN CELSIUS
  WCI - WIND CHILL INDEX
   HX - HEAT INDEX
  VSB - VISIBILITY
$$




USA.gov is the U.S. government's official web portal to all federal, state and local government web resources and services.